Tracking 25703 objects as of 2-Jul-2022
HD Live streaming from Space Station
objects crossing your sky now

OPS 9346 (IDSCS 25)

Track OPS 9346 (IDSCS 25) now!
OPS 9346 (IDSCS 25) is classified as:


NORAD ID: 3289
Int'l Code: 1968-050F
Perigee: 33,749.1 km
Apogee: 34,120.5 km
Inclination: 4.1 °
Period: 1,342.2 minutes
Semi major axis: 40305 km
RCS: 0.3981 m2 (medium)
Launch date: June 13, 1968
Source: United States (US)
Launch site: AIR FORCE EASTERN TEST RANGE (AFETR)
aabbcc
Your satellite tracking list
Your tracking list is empty




NASA's NSSDC Master Catalog

Two Line Element Set (TLE):
1 03289U 68050F   22183.05522802 -.00000103  00000-0  00000-0 0  9996
2 03289   4.0763  62.9171 0046080  93.7692  63.4521  1.07288103 35137
Source of the keplerian elements: AFSPC